Time,TemperatureF,DewpointF,PressureIn,WindDirection,WindDirectionDegrees,WindSpeedMPH,WindSpeedGustMPH,Humidity,HourlyPrecipIn,Conditions,Clouds,dailyrainin,SolarRadiationWatts/m^2,SoftwareType,DateUTC
2013-02-26 00:01:00,30.0,25.0,-100.00,ESE,104,1.0,2.0,81,0.00,,,0.00,0.000000,,2013-02-26 05:01:00,
2013-02-26 00:12:00,30.0,25.0,-100.00,ESE,104,1.0,2.0,81,0.00,,,0.00,0.000000,,2013-02-26 05:12:00,
2013-02-26 00:22:00,30.0,25.0,-100.00,ESE,104,1.0,2.0,81,0.00,,,0.00,0.000000,,2013-02-26 05:22:00,
2013-02-26 00:43:00,28.0,25.0,-100.00,SE,127,1.0,2.0,88,0.00,,,0.00,0.000000,,2013-02-26 05:43:00,
2013-02-26 00:52:00,28.0,25.0,-100.00,SE,127,1.0,2.0,88,0.00,,,0.00,0.000000,,2013-02-26 05:52:00,
2013-02-26 01:02:00,28.0,25.0,-100.00,SE,127,1.0,2.0,88,0.00,,,0.00,0.000000,,2013-02-26 06:02:00,
2013-02-26 01:11:00,28.0,25.0,-100.00,SE,127,1.0,2.0,88,0.00,,,0.00,0.000000,,2013-02-26 06:11:00,
2013-02-26 01:21:00,28.0,25.0,-100.00,SE,127,1.0,2.0,88,0.00,,,0.00,0.000000,,2013-02-26 06:21:00,
2013-02-26 01:42:00,28.0,27.0,-100.00,South,190,1.0,2.0,94,0.00,,,0.00,0.000000,,2013-02-26 06:42:00,
2013-02-26 01:52:00,28.0,27.0,-100.00,South,190,1.0,2.0,94,0.00,,,0.00,0.000000,,2013-02-26 06:52:00,
2013-02-26 02:01:00,28.0,27.0,-100.00,South,190,1.0,2.0,94,0.00,,,0.00,0.000000,,2013-02-26 07:01:00,
2013-02-26 02:11:00,28.0,27.0,-100.00,South,190,1.0,2.0,94,0.00,,,0.00,0.000000,,2013-02-26 07:11:00,
2013-02-26 02:22:00,28.0,27.0,-100.00,South,190,1.0,2.0,94,0.00,,,0.00,0.000000,,2013-02-26 07:22:00,
2013-02-26 02:42:00,28.0,28.0,-100.00,NNE,33,0.0,0.0,99,0.00,,,0.00,0.000000,,2013-02-26 07:42:00,
2013-02-26 02:52:00,28.0,28.0,-100.00,NNE,33,0.0,0.0,99,0.00,,,0.00,0.000000,,2013-02-26 07:52:00,
2013-02-26 03:02:00,28.0,28.0,-100.00,NNE,33,0.0,0.0,99,0.00,,,0.00,0.000000,,2013-02-26 08:02:00,
2013-02-26 03:11:00,28.0,28.0,-100.00,NNE,33,0.0,0.0,99,0.00,,,0.00,0.000000,,2013-02-26 08:11:00,
2013-02-26 03:21:00,28.0,28.0,-100.00,NNE,33,0.0,0.0,99,0.00,,,0.00,0.000000,,2013-02-26 08:21:00,
2013-02-26 03:42:00,28.0,28.0,-100.00,NNW,345,1.0,5.0,100,0.00,,,0.00,0.000000,,2013-02-26 08:42:00,
2013-02-26 03:52:00,28.0,28.0,-100.00,NNW,345,1.0,5.0,100,0.00,,,0.00,0.000000,,2013-02-26 08:52:00,
2013-02-26 04:02:00,28.0,28.0,-100.00,NNW,345,1.0,5.0,100,0.00,,,0.00,0.000000,,2013-02-26 09:02:00,
2013-02-26 04:11:00,28.0,28.0,-100.00,NNW,345,1.0,5.0,100,0.00,,,0.00,0.000000,,2013-02-26 09:11:00,
2013-02-26 04:21:00,28.0,28.0,-100.00,NNW,345,1.0,5.0,100,0.00,,,0.00,0.000000,,2013-02-26 09:21:00,
2013-02-26 04:43:00,29.0,29.0,-100.00,East,97,0.0,6.0,100,0.00,,,0.00,0.000000,,2013-02-26 09:43:00,
2013-02-26 04:52:00,29.0,29.0,-100.00,East,97,0.0,6.0,100,0.00,,,0.00,0.000000,,2013-02-26 09:52:00,
2013-02-26 05:01:00,29.0,29.0,-100.00,East,97,0.0,6.0,100,0.00,,,0.00,0.000000,,2013-02-26 10:01:00,
2013-02-26 05:11:00,29.0,29.0,-100.00,East,97,0.0,6.0,100,0.00,,,0.00,0.000000,,2013-02-26 10:11:00,
2013-02-26 05:21:00,29.0,29.0,-100.00,East,97,0.0,6.0,100,0.00,,,0.00,0.000000,,2013-02-26 10:21:00,
2013-02-26 05:42:00,30.0,29.0,-100.00,SW,222,1.0,4.0,97,0.00,,,0.00,0.000000,,2013-02-26 10:42:00,
2013-02-26 05:52:00,30.0,29.0,-100.00,SW,222,1.0,4.0,97,0.00,,,0.00,0.000000,,2013-02-26 10:52:00,
2013-02-26 06:01:00,30.0,29.0,-100.00,SW,222,1.0,4.0,97,0.00,,,0.00,0.000000,,2013-02-26 11:01:00,
2013-02-26 06:12:00,30.0,29.0,-100.00,SW,222,1.0,4.0,97,0.00,,,0.00,0.000000,,2013-02-26 11:12:00,
2013-02-26 06:22:00,30.0,29.0,-100.00,SW,222,1.0,4.0,97,0.00,,,0.00,0.000000,,2013-02-26 11:22:00,
2013-02-26 06:42:00,32.0,30.0,-100.00,ESE,118,2.0,6.0,91,0.00,,,0.00,0.000000,,2013-02-26 11:42:00,
2013-02-26 06:53:00,32.0,30.0,-100.00,ESE,118,2.0,6.0,91,0.00,,,0.00,0.000000,,2013-02-26 11:53:00,
2013-02-26 07:11:00,32.0,30.0,-100.00,ESE,118,2.0,6.0,91,0.00,,,0.00,0.000000,,2013-02-26 12:11:00,
2013-02-26 07:22:00,32.0,30.0,-100.00,ESE,118,2.0,6.0,91,0.00,,,0.00,0.000000,,2013-02-26 12:22:00,
2013-02-26 07:42:00,34.0,29.0,-100.00,SE,126,3.0,6.0,81,0.00,,,0.00,1.000000,,2013-02-26 12:42:00,
2013-02-26 07:53:00,34.0,29.0,-100.00,SE,126,3.0,6.0,81,0.00,,,0.00,1.000000,,2013-02-26 12:53:00,
2013-02-26 08:02:00,34.0,29.0,-100.00,SE,126,3.0,6.0,81,0.00,,,0.00,1.000000,,2013-02-26 13:02:00,
2013-02-26 08:11:00,34.0,29.0,-100.00,SE,126,3.0,6.0,81,0.00,,,0.00,1.000000,,2013-02-26 13:11:00,
2013-02-26 08:22:00,34.0,29.0,-100.00,SE,126,3.0,6.0,81,0.00,,,0.00,1.000000,,2013-02-26 13:22:00,
2013-02-26 08:42:00,33.0,33.0,-100.00,SE,139,2.0,8.0,99,0.07,,,0.07,6.000000,,2013-02-26 13:42:00,
2013-02-26 08:52:00,33.0,33.0,-100.00,SE,139,2.0,8.0,99,0.07,,,0.07,6.000000,,2013-02-26 13:52:00,
2013-02-26 09:11:00,33.0,33.0,-100.00,SE,139,2.0,8.0,99,0.07,,,0.07,6.000000,,2013-02-26 14:11:00,
2013-02-26 09:21:00,33.0,33.0,-100.00,SE,139,2.0,8.0,99,0.07,,,0.07,6.000000,,2013-02-26 14:21:00,
2013-02-26 09:42:00,33.0,33.0,-100.00,SE,124,2.0,6.0,100,0.10,,,0.17,16.000000,,2013-02-26 14:42:00,
2013-02-26 09:52:00,33.0,33.0,-100.00,SE,124,2.0,6.0,100,0.10,,,0.17,16.000000,,2013-02-26 14:52:00,
2013-02-26 10:02:00,33.0,33.0,-100.00,SE,124,2.0,6.0,100,0.10,,,0.17,16.000000,,2013-02-26 15:02:00,
2013-02-26 10:11:00,33.0,33.0,-100.00,SE,124,2.0,6.0,100,0.10,,,0.17,16.000000,,2013-02-26 15:11:00,
2013-02-26 10:22:00,33.0,33.0,-100.00,SE,124,2.0,6.0,100,0.10,,,0.17,16.000000,,2013-02-26 15:22:00,
2013-02-26 10:42:00,34.0,34.0,-100.00,SE,124,4.0,11.0,100,0.08,,,0.25,41.000000,,2013-02-26 15:42:00,
2013-02-26 10:52:00,34.0,34.0,-100.00,SE,124,4.0,11.0,100,0.08,,,0.25,41.000000,,2013-02-26 15:52:00,
2013-02-26 11:02:00,34.0,34.0,-100.00,SE,124,4.0,11.0,100,0.08,,,0.25,41.000000,,2013-02-26 16:02:00,
2013-02-26 11:11:00,34.0,34.0,-100.00,SE,124,4.0,11.0,100,0.08,,,0.25,41.000000,,2013-02-26 16:11:00,
2013-02-26 11:22:00,34.0,34.0,-100.00,SE,124,4.0,11.0,100,0.08,,,0.25,41.000000,,2013-02-26 16:22:00,
2013-02-26 11:42:00,36.0,36.0,-100.00,ESE,117,4.0,8.0,100,0.02,,,0.27,63.000000,,2013-02-26 16:42:00,
2013-02-26 11:52:00,36.0,36.0,-100.00,ESE,117,4.0,8.0,100,0.02,,,0.27,63.000000,,2013-02-26 16:52:00,
2013-02-26 12:01:00,36.0,36.0,-100.00,ESE,117,4.0,8.0,100,0.02,,,0.27,63.000000,,2013-02-26 17:01:00,
2013-02-26 12:11:00,36.0,36.0,-100.00,ESE,117,4.0,8.0,100,0.02,,,0.27,63.000000,,2013-02-26 17:11:00,
2013-02-26 12:21:00,36.0,36.0,-100.00,ESE,117,4.0,8.0,100,0.02,,,0.27,63.000000,,2013-02-26 17:21:00,
2013-02-26 12:42:00,37.0,37.0,-100.00,ESE,116,5.0,15.0,100,0.06,,,0.33,56.000000,,2013-02-26 17:42:00,
2013-02-26 12:52:00,37.0,37.0,-100.00,ESE,116,5.0,15.0,100,0.06,,,0.33,56.000000,,2013-02-26 17:52:00,
2013-02-26 13:02:00,37.0,37.0,-100.00,ESE,116,5.0,15.0,100,0.06,,,0.33,56.000000,,2013-02-26 18:02:00,
2013-02-26 13:12:00,37.0,37.0,-100.00,ESE,116,5.0,15.0,100,0.06,,,0.33,56.000000,,2013-02-26 18:12:00,
2013-02-26 13:21:00,37.0,37.0,-100.00,ESE,116,5.0,15.0,100,0.06,,,0.33,56.000000,,2013-02-26 18:21:00,
2013-02-26 13:42:00,39.0,39.0,-100.00,ESE,108,4.0,12.0,100,0.02,,,0.35,101.000000,,2013-02-26 18:42:00,
2013-02-26 13:53:00,39.0,39.0,-100.00,ESE,108,4.0,12.0,100,0.02,,,0.35,101.000000,,2013-02-26 18:53:00,
2013-02-26 14:02:00,39.0,39.0,-100.00,ESE,108,4.0,12.0,100,0.02,,,0.35,101.000000,,2013-02-26 19:02:00,
2013-02-26 14:11:00,39.0,39.0,-100.00,ESE,108,4.0,12.0,100,0.02,,,0.35,101.000000,,2013-02-26 19:11:00,
2013-02-26 14:22:00,39.0,39.0,-100.00,ESE,108,4.0,12.0,100,0.02,,,0.35,101.000000,,2013-02-26 19:22:00,
2013-02-26 14:42:00,38.0,38.0,-100.00,ESE,105,1.0,11.0,100,0.27,,,0.62,24.000000,,2013-02-26 19:42:00,
2013-02-26 14:52:00,38.0,38.0,-100.00,ESE,105,1.0,11.0,100,0.27,,,0.62,24.000000,,2013-02-26 19:52:00,
2013-02-26 15:01:00,38.0,38.0,-100.00,ESE,105,1.0,11.0,100,0.27,,,0.62,24.000000,,2013-02-26 20:01:00,
2013-02-26 15:11:00,38.0,38.0,-100.00,ESE,105,1.0,11.0,100,0.27,,,0.62,24.000000,,2013-02-26 20:11:00,
2013-02-26 15:21:00,38.0,38.0,-100.00,ESE,105,1.0,11.0,100,0.27,,,0.62,24.000000,,2013-02-26 20:21:00,
2013-02-26 18:42:00,38.0,38.0,-100.00,ESE,106,2.0,7.0,100,-99.99,,,0.81,10.000000,,2013-02-26 23:42:00,
2013-02-26 18:52:00,38.0,38.0,-100.00,ESE,106,2.0,7.0,100,-99.99,,,0.81,10.000000,,2013-02-26 23:52:00,
2013-02-26 19:02:00,38.0,38.0,-100.00,ESE,106,2.0,7.0,100,-99.99,,,0.81,10.000000,,2013-02-27 00:02:00,
2013-02-26 19:11:00,38.0,38.0,-100.00,ESE,106,2.0,7.0,100,-99.99,,,0.81,10.000000,,2013-02-27 00:11:00,
2013-02-26 19:22:00,38.0,38.0,-100.00,ESE,106,2.0,7.0,100,-99.99,,,0.81,10.000000,,2013-02-27 00:22:00,
2013-02-26 19:42:00,38.0,38.0,-100.00,SW,228,0.0,5.0,100,0.00,,,0.81,0.000000,,2013-02-27 00:42:00,
2013-02-26 19:52:00,38.0,38.0,-100.00,SW,228,0.0,5.0,100,0.00,,,0.81,0.000000,,2013-02-27 00:52:00,
2013-02-26 20:01:00,38.0,38.0,-100.00,SW,228,0.0,5.0,100,0.00,,,0.81,0.000000,,2013-02-27 01:01:00,
2013-02-26 20:11:00,38.0,38.0,-100.00,SW,228,0.0,5.0,100,0.00,,,0.81,0.000000,,2013-02-27 01:11:00,
2013-02-26 20:22:00,38.0,38.0,-100.00,SW,228,0.0,5.0,100,0.00,,,0.81,0.000000,,2013-02-27 01:22:00,
2013-02-26 20:23:00,39.0,39.0,-100.00,East,99,2.0,5.0,100,0.06,,,0.87,0.000000,,2013-02-27 01:23:00,
2013-02-26 20:42:00,39.0,39.0,-100.00,East,99,2.0,5.0,100,0.06,,,0.87,0.000000,,2013-02-27 01:42:00,
2013-02-26 20:52:00,39.0,39.0,-100.00,East,99,2.0,5.0,100,0.06,,,0.87,0.000000,,2013-02-27 01:52:00,
2013-02-26 21:02:00,39.0,39.0,-100.00,East,99,2.0,5.0,100,0.06,,,0.87,0.000000,,2013-02-27 02:02:00,
2013-02-26 21:16:00,39.0,39.0,-100.00,East,99,2.0,5.0,100,0.06,,,0.87,0.000000,,2013-02-27 02:16:00,
2013-02-26 21:42:00,40.0,40.0,-100.00,ESE,105,1.0,5.0,100,0.03,,,0.90,0.000000,,2013-02-27 02:42:00,
2013-02-26 21:52:00,40.0,40.0,-100.00,ESE,105,1.0,5.0,100,0.03,,,0.90,0.000000,,2013-02-27 02:52:00,
2013-02-26 22:02:00,40.0,40.0,-100.00,ESE,105,1.0,5.0,100,0.03,,,0.90,0.000000,,2013-02-27 03:02:00,
2013-02-26 22:11:00,40.0,40.0,-100.00,ESE,105,1.0,5.0,100,0.03,,,0.90,0.000000,,2013-02-27 03:11:00,
2013-02-26 22:22:00,40.0,40.0,-100.00,ESE,105,1.0,5.0,100,0.03,,,0.90,0.000000,,2013-02-27 03:22:00,
2013-02-26 22:42:00,40.0,40.0,-100.00,ESE,110,3.0,6.0,100,0.04,,,0.94,0.000000,,2013-02-27 03:42:00,
2013-02-26 22:52:00,40.0,40.0,-100.00,ESE,110,3.0,6.0,100,0.04,,,0.94,0.000000,,2013-02-27 03:52:00,
2013-02-26 23:02:00,40.0,40.0,-100.00,ESE,110,3.0,6.0,100,0.04,,,0.94,0.000000,,2013-02-27 04:02:00,
2013-02-26 23:12:00,40.0,40.0,-100.00,ESE,110,3.0,6.0,100,0.04,,,0.94,0.000000,,2013-02-27 04:12:00,
2013-02-26 23:22:00,40.0,40.0,-100.00,ESE,110,3.0,6.0,100,0.04,,,0.94,0.000000,,2013-02-27 04:22:00,
2013-02-26 23:42:00,41.0,41.0,-100.00,ESE,112,1.0,3.0,100,0.00,,,0.94,0.000000,,2013-02-27 04:42:00,
2013-02-26 23:52:00,41.0,41.0,-100.00,ESE,112,1.0,3.0,100,0.00,,,0.94,0.000000,,2013-02-27 04:52:00,